,,PA_Meas_PMT16A,,PR_Meas_QMR101_102,,RH_Meas_QMH101,,SR_Meas_QMS101,,TA_Meas_QMH101,,GenWind,,GenWind,
time,status,PA,status,PR,status,RH,status,SR,status,TA,status,DirAvg,status,SpdAvg,
2009-10-09, 00:00:04,VALID,918.238,VALID,0,VALID,88.8967,VALID,0.107441,VALID,19.2514,VALID,330,VALID,0.0332031,
2009-10-09, 00:01:04,VALID,918.189,VALID,0,VALID,89.1177,VALID,0,VALID,19.3113,VALID,330,VALID,0.18125,
2009-10-09, 00:02:04,VALID,918.164,VALID,0,VALID,86.1675,VALID,0,VALID,19.3308,VALID,330,VALID,0,
2009-10-09, 00:03:04,VALID,918.19,VALID,0,VALID,86.0607,VALID,0,VALID,19.2528,VALID,330,VALID,0.133984,
2009-10-09, 00:04:04,VALID,918.15,VALID,0,VALID,88.4926,VALID,0.107441,VALID,19.1149,VALID,330,VALID,0.117969,
2009-10-09, 00:05:04,VALID,918.162,VALID,0,VALID,89.1177,VALID,0,VALID,19.1149,VALID,330,VALID,0.490625,
2009-10-09, 00:06:04,VALID,918.117,VALID,0,VALID,89.0186,VALID,0,VALID,19.1554,VALID,330,VALID,0.509766,
2009-10-09, 00:07:04,VALID,918.135,VALID,0,VALID,89.0796,VALID,0.107441,VALID,19.1734,VALID,330,VALID,0.489453,
2009-10-09, 00:08:04,VALID,918.125,VALID,0,VALID,85.9007,VALID,0.107441,VALID,19.2124,VALID,330,VALID,0.183594,
2009-10-09, 00:09:04,VALID,918.086,VALID,0,VALID,87.9895,VALID,0,VALID,19.2334,VALID,330,VALID,0.470313,
2009-10-09, 00:10:04,VALID,918.087,VALID,0,VALID,87.654,VALID,0,VALID,19.1944,VALID,330,VALID,0.645312,
2009-10-09, 00:11:04,VALID,918.087,VALID,0,VALID,88.4164,VALID,0,VALID,19.2334,VALID,330,VALID,0.491016,
2009-10-09, 00:12:04,VALID,918.083,VALID,0,VALID,87.8446,VALID,0,VALID,19.2528,VALID,330,VALID,0.331641,
2009-10-09, 00:13:04,VALID,918.095,VALID,0,VALID,88.4545,VALID,0.107441,VALID,19.2904,VALID,330,VALID,0.395703,
2009-10-09, 00:14:04,VALID,918.063,VALID,0,VALID,86.6401,VALID,0,VALID,19.3294,VALID,330,VALID,0.00117188,
2009-10-09, 00:15:04,VALID,918.087,VALID,0,VALID,87.6998,VALID,0.107441,VALID,19.3893,VALID,330,VALID,0.0113281,
2009-10-09, 00:16:04,VALID,918.068,VALID,0,VALID,86.1598,VALID,0,VALID,19.3879,VALID,330,VALID,0.162891,
2009-10-09, 00:17:04,VALID,918.071,VALID,0,VALID,86.8764,VALID,0.107441,VALID,19.4268,VALID,330,VALID,0.573047,
2009-10-09, 00:18:04,VALID,918.079,VALID,0,VALID,85.8168,VALID,0,VALID,19.4868,VALID,330,VALID,0.264844,
2009-10-09, 00:19:04,VALID,918.068,VALID,0,VALID,86.2437,VALID,0,VALID,19.5048,VALID,330,VALID,0.589453,
2009-10-09, 00:20:04,VALID,918.054,VALID,0,VALID,85.8702,VALID,0.107441,VALID,19.4853,VALID,330,VALID,0.397266,
2009-10-09, 00:21:04,VALID,918.046,VALID,0,VALID,87.3796,VALID,0.107441,VALID,19.4673,VALID,330,VALID,0.525781,
2009-10-09, 00:22:04,VALID,918.016,VALID,0,VALID,87.0899,VALID,0.107441,VALID,19.4658,VALID,330,VALID,0.0148437,
2009-10-09, 00:23:04,VALID,918.019,VALID,0,VALID,86.7011,VALID,0,VALID,19.4463,VALID,330,VALID,0.289063,
2009-10-09, 00:24:04,VALID,917.99,VALID,0,VALID,86.6859,VALID,0.107441,VALID,19.4463,VALID,330,VALID,0.113672,
2009-10-09, 00:25:04,VALID,917.997,VALID,0,VALID,87.4101,VALID,0.107441,VALID,19.5063,VALID,330,VALID,0,
2009-10-09, 00:26:04,VALID,918.004,VALID,0,VALID,87.0137,VALID,0,VALID,19.4074,VALID,330,VALID,0.0523437,
2009-10-09, 00:27:04,VALID,918.024,VALID,0,VALID,88.0047,VALID,0.107441,VALID,19.3294,VALID,330,VALID,0.0558594,
2009-10-09, 00:28:04,VALID,918.014,VALID,0,VALID,87.311,VALID,0,VALID,19.2319,VALID,330,VALID,0.516797,
2009-10-09, 00:29:04,VALID,918.036,VALID,0,VALID,88.5002,VALID,0,VALID,19.1149,VALID,330,VALID,0.294141,
2009-10-09, 00:30:04,VALID,918.021,VALID,0,VALID,88.9881,VALID,0,VALID,19.0384,VALID,330,VALID,0.719141,
2009-10-09, 00:31:04,VALID,918.048,VALID,0,VALID,89.0034,VALID,0,VALID,19.0175,VALID,330,VALID,0.667578,
2009-10-09, 00:32:04,VALID,918.03,VALID,0,VALID,87.9742,VALID,0,VALID,19.0954,VALID,330,VALID,0.684766,
2009-10-09, 00:33:04,VALID,918.029,VALID,0,VALID,87.7531,VALID,0,VALID,19.1944,VALID,330,VALID,0.588672,
2009-10-09, 00:34:04,VALID,918.021,VALID,0,VALID,87.0594,VALID,0.107441,VALID,19.2124,VALID,330,VALID,0.381641,
2009-10-09, 00:35:04,VALID,918.052,VALID,0,VALID,87.1966,VALID,0,VALID,19.2319,VALID,330,VALID,0.221484,
2009-10-09, 00:36:04,VALID,918.039,VALID,0,VALID,87.1585,VALID,0,VALID,19.2723,VALID,330,VALID,0.459766,
2009-10-09, 00:37:04,VALID,917.998,VALID,0,VALID,87.2043,VALID,0.107441,VALID,19.3698,VALID,330,VALID,0.850781,
2009-10-09, 00:38:04,VALID,917.987,VALID,0,VALID,87.9513,VALID,0,VALID,19.4283,VALID,330,VALID,0.476953,
2009-10-09, 00:39:04,VALID,917.934,VALID,0,VALID,86.5486,VALID,0,VALID,19.3879,VALID,330,VALID,0.498047,
2009-10-09, 00:40:04,VALID,917.95,VALID,0,VALID,87.6083,VALID,0,VALID,19.3684,VALID,330,VALID,0.647656,
2009-10-09, 00:41:04,VALID,917.901,VALID,0,VALID,87.6998,VALID,0,VALID,19.3879,VALID,330,VALID,0.358594,
2009-10-09, 00:42:04,VALID,917.921,VALID,0,VALID,86.2666,VALID,0,VALID,19.4074,VALID,330,VALID,0.426562,
2009-10-09, 00:43:04,VALID,917.93,VALID,0,VALID,87.0823,VALID,0,VALID,19.3879,VALID,330,VALID,0.507031,
2009-10-09, 00:44:04,VALID,917.909,VALID,0,VALID,87.8218,VALID,0,VALID,19.3308,VALID,330,VALID,0.577344,
2009-10-09, 00:45:04,VALID,917.891,VALID,0,VALID,89.1787,VALID,0,VALID,19.2723,VALID,330,VALID,0.409766,
2009-10-09, 00:46:04,VALID,917.892,VALID,0,VALID,88.8738,VALID,0.107441,VALID,19.2124,VALID,330,VALID,0.155859,
2009-10-09, 00:47:04,VALID,917.927,VALID,0,VALID,87.8675,VALID,0.107441,VALID,19.2918,VALID,330,VALID,0.158984,
2009-10-09, 00:48:04,VALID,917.939,VALID,0,VALID,87.3948,VALID,0,VALID,19.2334,VALID,330,VALID,0.205469,
2009-10-09, 00:49:04,VALID,918.001,VALID,0,VALID,88.1648,VALID,0,VALID,19.1344,VALID,330,VALID,0,
2009-10-09, 00:50:04,VALID,918.007,VALID,0,VALID,89.4913,VALID,0,VALID,19.1359,VALID,330,VALID,0,
2009-10-09, 00:51:04,VALID,917.999,VALID,0,VALID,89.4837,VALID,0,VALID,19.1149,VALID,330,VALID,0.0804688,
2009-10-09, 00:52:04,VALID,917.985,VALID,0,VALID,88.9424,VALID,0,VALID,19.1554,VALID,330,VALID,0.227734,
2009-10-09, 00:53:04,VALID,917.96,VALID,0,VALID,89.2626,VALID,0,VALID,19.1359,VALID,330,VALID,0.342578,
2009-10-09, 00:54:04,VALID,917.95,VALID,0,VALID,88.889,VALID,0,VALID,19.1344,VALID,330,VALID,0.382031,
2009-10-09, 00:55:04,VALID,917.945,VALID,0,VALID,88.8738,VALID,0.107441,VALID,19.1344,VALID,330,VALID,0.252734,
2009-10-09, 00:56:04,VALID,917.895,VALID,0,VALID,88.1953,VALID,0,VALID,19.1359,VALID,330,VALID,0.467578,
2009-10-09, 00:57:04,VALID,917.886,VALID,0,VALID,89.3846,VALID,0,VALID,19.0369,VALID,330,VALID,0.337891,
2009-10-09, 00:58:04,VALID,917.848,VALID,0,VALID,88.7747,VALID,0,VALID,19.0189,VALID,330,VALID,0.446875,
2009-10-09, 00:59:04,VALID,917.809,VALID,0,VALID,88.2487,VALID,0,VALID,19.0384,VALID,330,VALID,0.359375,
2009-10-09, 01:00:04,VALID,917.823,VALID,0,VALID,87.5854,VALID,0,VALID,18.998,VALID,330,VALID,0.642578,
2009-10-09, 01:01:04,VALID,917.786,VALID,0,VALID,87.9666,VALID,0,VALID,18.9395,VALID,330,VALID,0.119141,
2009-10-09, 01:02:04,VALID,917.795,VALID,0,VALID,88.1419,VALID,0,VALID,18.92,VALID,330,VALID,0.671875,
2009-10-09, 01:03:04,VALID,917.813,VALID,0,VALID,87.7836,VALID,0,VALID,18.9409,VALID,330,VALID,0.642969,
2009-10-09, 01:04:04,VALID,917.807,VALID,0,VALID,87.5473,VALID,0,VALID,18.8615,VALID,330,VALID,0.591016,
2009-10-09, 01:05:04,VALID,917.792,VALID,0,VALID,88.3935,VALID,0.107441,VALID,18.824,VALID,330,VALID,0.733984,
2009-10-09, 01:06:04,VALID,917.748,VALID,0,VALID,88.2487,VALID,0,VALID,18.8225,VALID,330,VALID,0.920313,
2009-10-09, 01:07:04,VALID,917.711,VALID,0,VALID,87.9132,VALID,0,VALID,18.8225,VALID,330,VALID,0.657812,
2009-10-09, 01:08:04,VALID,917.711,VALID,0,VALID,88.2944,VALID,0,VALID,18.8434,VALID,330,VALID,0.455469,
2009-10-09, 01:09:04,VALID,917.687,VALID,0,VALID,87.8294,VALID,0,VALID,18.881,VALID,330,VALID,0.123438,
2009-10-09, 01:10:04,VALID,917.695,VALID,0,VALID,87.7913,VALID,0,VALID,18.9395,VALID,330,VALID,0.326953,
2009-10-09, 01:11:04,VALID,917.712,VALID,0,VALID,87.9056,VALID,0,VALID,18.9994,VALID,330,VALID,0.385156,
2009-10-09, 01:12:04,VALID,917.693,VALID,0,VALID,87.5321,VALID,0,VALID,19.0579,VALID,330,VALID,0.0308594,
2009-10-09, 01:13:04,VALID,917.664,VALID,0,VALID,87.2043,VALID,0,VALID,19.1149,VALID,330,VALID,0,
2009-10-09, 01:14:04,VALID,917.661,VALID,0,VALID,86.7316,VALID,0,VALID,19.1554,VALID,330,VALID,0,
2009-10-09, 01:15:04,VALID,917.655,VALID,0,VALID,87.2195,VALID,0,VALID,19.1749,VALID,330,VALID,0,
2009-10-09, 01:16:04,VALID,917.623,VALID,0,VALID,86.9603,VALID,0,VALID,19.1749,VALID,330,VALID,0,
2009-10-09, 01:17:04,VALID,917.613,VALID,0,VALID,87.0137,VALID,0,VALID,19.1554,VALID,330,VALID,0,
2009-10-09, 01:18:04,VALID,917.609,VALID,0,VALID,87.3339,VALID,0,VALID,19.1554,VALID,330,VALID,0,
2009-10-09, 01:19:04,VALID,917.58,VALID,0,VALID,87.9895,VALID,0,VALID,19.1344,VALID,330,VALID,0,
2009-10-09, 01:20:04,VALID,917.573,VALID,0,VALID,86.6249,VALID,0,VALID,19.1149,VALID,330,VALID,0.06875,
2009-10-09, 01:21:04,VALID,917.557,VALID,0,VALID,87.0975,VALID,0,VALID,19.0759,VALID,330,VALID,0,
2009-10-09, 01:22:04,VALID,917.58,VALID,0,VALID,86.8917,VALID,0,VALID,19.0384,VALID,330,VALID,0,
2009-10-09, 01:23:04,VALID,917.541,VALID,0,VALID,88.4926,VALID,0,VALID,18.9799,VALID,330,VALID,0,
2009-10-09, 01:24:04,VALID,917.539,VALID,0,VALID,88.607,VALID,0,VALID,18.9409,VALID,330,VALID,0,
2009-10-09, 01:25:04,VALID,917.517,VALID,0,VALID,88.6984,VALID,0,VALID,18.9019,VALID,330,VALID,0.156641,
2009-10-09, 01:26:04,VALID,917.541,VALID,0,VALID,88.9043,VALID,0,VALID,18.8629,VALID,330,VALID,0,
2009-10-09, 01:27:04,VALID,917.522,VALID,0,VALID,88.9424,VALID,0,VALID,18.803,VALID,330,VALID,0,
2009-10-09, 01:28:04,VALID,917.471,VALID,0,VALID,89.3464,VALID,0,VALID,18.7655,VALID,330,VALID,0,
2009-10-09, 01:29:04,VALID,917.446,VALID,0,VALID,89.5065,VALID,0,VALID,18.7251,VALID,330,VALID,0,
2009-10-09, 01:30:04,VALID,917.452,VALID,0,VALID,89.3617,VALID,0,VALID,18.668,VALID,330,VALID,0,
2009-10-09, 01:31:04,VALID,917.383,VALID,0,VALID,89.9411,VALID,0,VALID,18.5886,VALID,330,VALID,0,
2009-10-09, 01:32:04,VALID,917.401,VALID,0,VALID,89.8801,VALID,0,VALID,18.5496,VALID,330,VALID,0.132813,
2009-10-09, 01:33:04,VALID,917.397,VALID,0,VALID,89.7733,VALID,0.107441,VALID,18.5511,VALID,330,VALID,0.300781,
2009-10-09, 01:34:04,VALID,917.38,VALID,0,VALID,89.9563,VALID,0,VALID,18.5511,VALID,330,VALID,0.186328,
2009-10-09, 01:35:04,VALID,917.36,VALID,0,VALID,89.9639,VALID,0,VALID,18.5316,VALID,330,VALID,0,
2009-10-09, 01:36:04,VALID,917.365,VALID,0,VALID,88.9881,VALID,0,VALID,18.5121,VALID,330,VALID,0,
2009-10-09, 01:37:04,VALID,917.295,VALID,0,VALID,90.0021,VALID,0,VALID,18.4522,VALID,330,VALID,0,
2009-10-09, 01:38:04,VALID,917.263,VALID,0,VALID,90.4518,VALID,0,VALID,18.4341,VALID,330,VALID,0,
2009-10-09, 01:39:04,VALID,917.257,VALID,0,VALID,90.3222,VALID,0,VALID,18.4146,VALID,330,VALID,0,
2009-10-09, 01:40:04,VALID,917.281,VALID,0,VALID,90.0021,VALID,0,VALID,18.4536,VALID,330,VALID,0,
2009-10-09, 01:41:04,VALID,917.252,VALID,0,VALID,89.9716,VALID,0.107441,VALID,18.4731,VALID,330,VALID,0,
2009-10-09, 01:42:04,VALID,917.254,VALID,0,VALID,89.7276,VALID,0,VALID,18.4926,VALID,330,VALID,0,
2009-10-09, 01:43:04,VALID,917.229,VALID,0,VALID,89.7962,VALID,0,VALID,18.5121,VALID,330,VALID,0,
2009-10-09, 01:44:04,VALID,917.234,VALID,0,VALID,89.8953,VALID,0,VALID,18.5107,VALID,330,VALID,0,
2009-10-09, 01:45:04,VALID,917.21,VALID,0,VALID,89.5828,VALID,0,VALID,18.5107,VALID,330,VALID,0,
2009-10-09, 01:46:04,VALID,917.182,VALID,0,VALID,89.781,VALID,0,VALID,18.5316,VALID,330,VALID,0,
2009-10-09, 01:47:04,VALID,917.189,VALID,0,VALID,89.9029,VALID,0,VALID,18.5511,VALID,330,VALID,0,
2009-10-09, 01:48:04,VALID,917.196,VALID,0,VALID,90.0097,VALID,0,VALID,18.5705,VALID,330,VALID,0.003125,
2009-10-09, 01:49:04,VALID,917.18,VALID,0,VALID,89.6514,VALID,0,VALID,18.5496,VALID,330,VALID,0.199219,
2009-10-09, 01:50:04,VALID,917.178,VALID,0,VALID,89.5904,VALID,0,VALID,18.59,VALID,330,VALID,0.128125,
2009-10-09, 01:51:04,VALID,917.147,VALID,0,VALID,89.8038,VALID,0,VALID,18.5705,VALID,330,VALID,0.460156,
2009-10-09, 01:52:04,VALID,917.169,VALID,0,VALID,89.3617,VALID,0,VALID,18.6276,VALID,330,VALID,0.0621094,
2009-10-09, 01:53:04,VALID,917.165,VALID,0,VALID,89.4379,VALID,0,VALID,18.6485,VALID,330,VALID,0.183984,
2009-10-09, 01:54:04,VALID,917.147,VALID,0,VALID,89.1711,VALID,0,VALID,18.668,VALID,330,VALID,0.0539063,
2009-10-09, 01:55:04,VALID,917.177,VALID,0,VALID,89.8191,VALID,0,VALID,18.6875,VALID,330,VALID,0,
2009-10-09, 01:56:04,VALID,917.128,VALID,0,VALID,89.6361,VALID,0,VALID,18.707,VALID,330,VALID,0.0941406,
2009-10-09, 01:57:04,VALID,917.118,VALID,0,VALID,89.659,VALID,0,VALID,18.707,VALID,330,VALID,0.177734,
2009-10-09, 01:58:04,VALID,917.133,VALID,0,VALID,89.3464,VALID,0,VALID,18.6861,VALID,330,VALID,0.134766,
2009-10-09, 01:59:04,VALID,917.107,VALID,0,VALID,89.1482,VALID,0,VALID,18.6875,VALID,330,VALID,0.448047,
2009-10-09, 02:00:04,VALID,917.073,VALID,0,VALID,89.2931,VALID,0,VALID,18.6875,VALID,330,VALID,0,
2009-10-09, 02:01:04,VALID,917.056,VALID,0,VALID,88.9119,VALID,0,VALID,18.707,VALID,330,VALID,0,
2009-10-09, 02:02:04,VALID,917.092,VALID,0,VALID,88.7747,VALID,0.107441,VALID,18.7056,VALID,330,VALID,0,
2009-10-09, 02:03:04,VALID,917.074,VALID,0,VALID,88.7975,VALID,0,VALID,18.7265,VALID,330,VALID,0,
2009-10-09, 02:04:04,VALID,917.064,VALID,0,VALID,89.011,VALID,0,VALID,18.7251,VALID,330,VALID,0,
2009-10-09, 02:05:04,VALID,917.091,VALID,0,VALID,88.8585,VALID,0,VALID,18.785,VALID,330,VALID,0,
2009-10-09, 02:06:04,VALID,917.088,VALID,0,VALID,88.6375,VALID,0,VALID,18.8045,VALID,330,VALID,0,
2009-10-09, 02:07:04,VALID,917.06,VALID,0,VALID,88.4088,VALID,0,VALID,18.8045,VALID,330,VALID,0,
2009-10-09, 02:08:04,VALID,917.05,VALID,0,VALID,88.5307,VALID,0,VALID,18.746,VALID,330,VALID,0.167187,
2009-10-09, 02:09:04,VALID,917.042,VALID,0,VALID,88.6298,VALID,0.107441,VALID,18.707,VALID,330,VALID,0.402734,
2009-10-09, 02:10:04,VALID,917.052,VALID,0,VALID,88.3249,VALID,0,VALID,18.7265,VALID,330,VALID,0.253906,
2009-10-09, 02:11:04,VALID,917.037,VALID,0,VALID,86.9527,VALID,0,VALID,18.8045,VALID,330,VALID,1.03945,
2009-10-09, 02:12:04,VALID,917.023,VALID,0,VALID,85.9388,VALID,0,VALID,19.0189,VALID,330,VALID,0.494141,
2009-10-09, 02:13:04,VALID,917.008,VALID,0,VALID,85.2298,VALID,0,VALID,19.1749,VALID,330,VALID,0.0152344,
2009-10-09, 02:14:04,VALID,917.02,VALID,0,VALID,84.9172,VALID,0,VALID,19.2139,VALID,330,VALID,0.0195313,
2009-10-09, 02:15:04,VALID,916.993,VALID,0,VALID,84.3302,VALID,0,VALID,19.2334,VALID,330,VALID,0.285156,
2009-10-09, 02:16:04,VALID,916.996,VALID,0,VALID,84.902,VALID,0,VALID,19.1944,VALID,330,VALID,0.078125,
2009-10-09, 02:17:04,VALID,916.985,VALID,0,VALID,84.9706,VALID,0,VALID,19.1164,VALID,330,VALID,0.184766,
2009-10-09, 02:18:04,VALID,916.978,VALID,0,VALID,85.7863,VALID,0,VALID,19.0983,VALID,330,VALID,0,
2009-10-09, 02:19:04,VALID,916.962,VALID,0,VALID,86.0379,VALID,0,VALID,18.9604,VALID,330,VALID,0,
2009-10-09, 02:20:04,VALID,916.946,VALID,0,VALID,86.3504,VALID,0,VALID,18.8824,VALID,330,VALID,0.107813,
2009-10-09, 02:21:04,VALID,916.925,VALID,0,VALID,86.4343,VALID,0,VALID,18.8629,VALID,330,VALID,0,
2009-10-09, 02:22:04,VALID,916.871,VALID,0,VALID,86.3885,VALID,0,VALID,18.824,VALID,330,VALID,0,
2009-10-09, 02:23:04,VALID,916.864,VALID,0,VALID,86.9527,VALID,0,VALID,18.746,VALID,330,VALID,0,
2009-10-09, 02:24:04,VALID,916.842,VALID,0,VALID,86.5486,VALID,0,VALID,18.6875,VALID,330,VALID,0.0046875,
2009-10-09, 02:25:04,VALID,916.848,VALID,0,VALID,86.4114,VALID,0,VALID,18.746,VALID,330,VALID,0,
2009-10-09, 02:26:04,VALID,916.8,VALID,0,VALID,86.9069,VALID,0,VALID,18.7265,VALID,330,VALID,0,
2009-10-09, 02:27:04,VALID,916.82,VALID,0,VALID,86.602,VALID,0,VALID,18.707,VALID,330,VALID,0.0328125,
2009-10-09, 02:28:04,VALID,916.858,VALID,0,VALID,87.0899,VALID,0,VALID,18.6875,VALID,330,VALID,0.00429688,
2009-10-09, 02:29:04,VALID,916.808,VALID,0,VALID,86.8078,VALID,0,VALID,18.6485,VALID,330,VALID,0,
2009-10-09, 02:30:04,VALID,916.799,VALID,0,VALID,86.6249,VALID,0,VALID,18.6276,VALID,330,VALID,0.532031,
2009-10-09, 02:31:04,VALID,916.817,VALID,0,VALID,86.7164,VALID,0,VALID,18.6875,VALID,330,VALID,0,
2009-10-09, 02:32:04,VALID,916.801,VALID,0,VALID,86.2285,VALID,0,VALID,18.6875,VALID,330,VALID,0,
2009-10-09, 02:33:04,VALID,916.782,VALID,0,VALID,85.7329,VALID,0,VALID,18.7251,VALID,330,VALID,0,
2009-10-09, 02:34:04,VALID,916.777,VALID,0,VALID,86.0836,VALID,0,VALID,18.8045,VALID,330,VALID,0,
2009-10-09, 02:35:04,VALID,916.777,VALID,0,VALID,85.4966,VALID,0,VALID,18.824,VALID,330,VALID,0.327734,
2009-10-09, 02:36:04,VALID,916.748,VALID,0,VALID,85.4356,VALID,0,VALID,18.8434,VALID,330,VALID,0.311719,
2009-10-09, 02:37:04,VALID,916.734,VALID,0,VALID,84.7495,VALID,0,VALID,18.8629,VALID,330,VALID,0.462109,
2009-10-09, 02:38:04,VALID,916.708,VALID,0,VALID,84.6275,VALID,0,VALID,18.9019,VALID,330,VALID,0.232422,
2009-10-09, 02:39:04,VALID,916.674,VALID,0,VALID,84.5666,VALID,0,VALID,18.9214,VALID,330,VALID,0.348437,
2009-10-09, 02:40:04,VALID,916.666,VALID,0,VALID,84.3074,VALID,0,VALID,18.9604,VALID,330,VALID,0.354688,
2009-10-09, 02:41:04,VALID,916.678,VALID,0,VALID,84.3379,VALID,0,VALID,18.9994,VALID,330,VALID,0.334375,
2009-10-09, 02:42:04,VALID,916.679,VALID,0,VALID,83.8042,VALID,0,VALID,19.0384,VALID,330,VALID,0.284375,
2009-10-09, 02:43:04,VALID,916.678,VALID,0,VALID,82.4015,VALID,0,VALID,19.0983,VALID,330,VALID,0.436328,
2009-10-09, 02:44:04,VALID,916.674,VALID,0,VALID,81.7764,VALID,0,VALID,19.1554,VALID,330,VALID,0.575391,
2009-10-09, 02:45:04,VALID,916.673,VALID,0,VALID,81.5172,VALID,0,VALID,19.2319,VALID,330,VALID,0.548437,
2009-10-09, 02:46:04,VALID,916.668,VALID,0,VALID,80.7396,VALID,0,VALID,19.3113,VALID,330,VALID,0.445313,
2009-10-09, 02:47:04,VALID,916.652,VALID,0,VALID,80.6176,VALID,0,VALID,19.4103,VALID,330,VALID,0.351563,
2009-10-09, 02:48:04,VALID,916.644,VALID,0,VALID,79.7181,VALID,0,VALID,19.4283,VALID,330,VALID,0.851953,
2009-10-09, 02:49:05,VALID,916.62,VALID,0,VALID,78.9405,VALID,0,VALID,19.4868,VALID,330,VALID,0.392578,
2009-10-09, 02:50:05,VALID,916.621,VALID,0,VALID,77.9418,VALID,0,VALID,19.6038,VALID,330,VALID,0.991406,
2009-10-09, 02:51:05,VALID,916.617,VALID,0,VALID,77.9647,VALID,0,VALID,19.7013,VALID,330,VALID,0.554688,
2009-10-09, 02:52:05,VALID,916.6,VALID,0,VALID,76.9355,VALID,0,VALID,19.7403,VALID,330,VALID,0.658984,
2009-10-09, 02:53:05,VALID,916.588,VALID,0,VALID,77.3091,VALID,0,VALID,19.8183,VALID,330,VALID,0.457422,
2009-10-09, 02:54:05,VALID,916.601,VALID,0,VALID,77.6979,VALID,0,VALID,19.8378,VALID,330,VALID,0.547266,
2009-10-09, 02:55:05,VALID,916.585,VALID,0,VALID,77.6369,VALID,0,VALID,19.7988,VALID,330,VALID,0.395312,
2009-10-09, 02:56:05,VALID,916.551,VALID,0,VALID,77.675,VALID,0,VALID,19.8003,VALID,330,VALID,0.336328,
2009-10-09, 02:57:05,VALID,916.561,VALID,0,VALID,77.4234,VALID,0,VALID,19.7793,VALID,330,VALID,0.427734,
2009-10-09, 02:58:05,VALID,916.545,VALID,0,VALID,78.5136,VALID,0,VALID,19.7793,VALID,330,VALID,0.634766,
2009-10-09, 02:59:05,VALID,916.545,VALID,0,VALID,78.262,VALID,0,VALID,19.7403,VALID,330,VALID,0.621094,
2009-10-09, 03:00:05,VALID,916.53,VALID,0,VALID,78.3382,VALID,0,VALID,19.7013,VALID,330,VALID,0.542969,
2009-10-09, 03:01:05,VALID,916.479,VALID,0,VALID,77.6521,VALID,0,VALID,19.7013,VALID,330,VALID,0.337109,
2009-10-09, 03:02:05,VALID,916.487,VALID,0,VALID,76.4705,VALID,0,VALID,19.7793,VALID,330,VALID,0.615625,
2009-10-09, 03:03:05,VALID,916.455,VALID,0,VALID,77.3091,VALID,0,VALID,19.8168,VALID,330,VALID,0.590625,
2009-10-09, 03:04:05,VALID,916.484,VALID,0,VALID,77.0422,VALID,0,VALID,19.8378,VALID,330,VALID,0.763672,
2009-10-09, 03:05:05,VALID,916.422,VALID,0,VALID,77.3167,VALID,0,VALID,19.7988,VALID,330,VALID,0.601953,
2009-10-09, 03:06:05,VALID,916.465,VALID,0,VALID,80.0764,VALID,0,VALID,19.7793,VALID,330,VALID,0.2,
2009-10-09, 03:07:05,VALID,916.452,VALID,0,VALID,80.5948,VALID,0,VALID,19.6818,VALID,330,VALID,0.332031,
2009-10-09, 03:08:05,VALID,916.433,VALID,0,VALID,79.192,VALID,0,VALID,19.5438,VALID,330,VALID,0.150391,
2009-10-09, 03:09:05,VALID,916.433,VALID,0,VALID,80.2593,VALID,0,VALID,19.4463,VALID,330,VALID,0,
2009-10-09, 03:10:05,VALID,916.466,VALID,0,VALID,81.4028,VALID,0,VALID,19.4088,VALID,330,VALID,0,
2009-10-09, 03:11:05,VALID,916.471,VALID,0,VALID,81.1589,VALID,0,VALID,19.2709,VALID,330,VALID,0.328125,
2009-10-09, 03:12:05,VALID,916.448,VALID,0,VALID,80.1526,VALID,0,VALID,19.1164,VALID,330,VALID,0.489453,
2009-10-09, 03:13:05,VALID,916.466,VALID,0,VALID,79.8629,VALID,0,VALID,19.0969,VALID,330,VALID,0.248047,
2009-10-09, 03:14:05,VALID,916.465,VALID,0,VALID,80.8235,VALID,0,VALID,19.1359,VALID,330,VALID,0.183594,
2009-10-09, 03:15:05,VALID,916.442,VALID,0,VALID,81.5172,VALID,0,VALID,19.1554,VALID,330,VALID,0,
2009-10-09, 03:16:05,VALID,916.499,VALID,0,VALID,81.4333,VALID,0,VALID,19.1359,VALID,330,VALID,0.0972656,
2009-10-09, 03:17:05,VALID,916.504,VALID,0,VALID,81.2809,VALID,0,VALID,19.0774,VALID,330,VALID,0.00742187,
2009-10-09, 03:18:05,VALID,916.438,VALID,0,VALID,81.7993,VALID,0,VALID,18.998,VALID,330,VALID,0,
2009-10-09, 03:19:05,VALID,916.465,VALID,0,VALID,81.6468,VALID,0,VALID,18.9799,VALID,330,VALID,0,
2009-10-09, 03:20:05,VALID,916.422,VALID,0,VALID,81.38,VALID,0,VALID,18.9409,VALID,330,VALID,0,
2009-10-09, 03:21:05,VALID,916.422,VALID,0,VALID,81.5401,VALID,0,VALID,18.9214,VALID,330,VALID,0,
2009-10-09, 03:22:05,VALID,916.384,VALID,0,VALID,82.2643,VALID,0,VALID,18.8824,VALID,330,VALID,0.289844,
2009-10-09, 03:23:05,VALID,916.423,VALID,0,VALID,82.5311,VALID,0,VALID,18.8434,VALID,330,VALID,0.339063,
2009-10-09, 03:24:05,VALID,916.397,VALID,0,VALID,82.9733,VALID,0,VALID,18.785,VALID,330,VALID,0.304297,
2009-10-09, 03:25:05,VALID,916.354,VALID,0,VALID,83.4307,VALID,0,VALID,18.7056,VALID,330,VALID,0.401953,
2009-10-09, 03:26:05,VALID,916.352,VALID,0,VALID,83.8118,VALID,0,VALID,18.629,VALID,330,VALID,0.378906,
2009-10-09, 03:27:05,VALID,916.364,VALID,0,VALID,84.7571,VALID,0,VALID,18.5705,VALID,330,VALID,0.486328,
2009-10-09, 03:28:05,VALID,916.377,VALID,0,VALID,85.2069,VALID,0,VALID,18.4731,VALID,330,VALID,0.376172,
2009-10-09, 03:29:05,VALID,916.411,VALID,0,VALID,85.8625,VALID,0,VALID,18.3547,VALID,330,VALID,0.582422,
2009-10-09, 03:30:05,VALID,916.4,VALID,0,VALID,86.5868,VALID,0,VALID,18.2782,VALID,330,VALID,0.629297,
2009-10-09, 03:31:05,VALID,916.429,VALID,0,VALID,87.0899,VALID,0,VALID,18.1598,VALID,330,VALID,0.489062,
2009-10-09, 03:32:05,VALID,916.427,VALID,0,VALID,87.3872,VALID,0,VALID,18.1807,VALID,330,VALID,0.194531,
2009-10-09, 03:33:05,VALID,916.436,VALID,0,VALID,87.3948,VALID,0,VALID,18.1598,VALID,330,VALID,0.402344,
2009-10-09, 03:34:05,VALID,916.453,VALID,0,VALID,87.6159,VALID,0,VALID,18.2002,VALID,330,VALID,0.29375,
2009-10-09, 03:35:05,VALID,916.433,VALID,0,VALID,87.715,VALID,0,VALID,18.2392,VALID,330,VALID,0.302344,
2009-10-09, 03:36:05,VALID,916.474,VALID,0,VALID,87.311,VALID,0,VALID,18.2977,VALID,330,VALID,0.249609,
2009-10-09, 03:37:05,VALID,916.472,VALID,0,VALID,87.0442,VALID,0,VALID,18.3756,VALID,330,VALID,0.192188,
2009-10-09, 03:38:05,VALID,916.474,VALID,0,VALID,86.9298,VALID,0,VALID,18.4146,VALID,330,VALID,0,
2009-10-09, 03:39:05,VALID,916.484,VALID,0,VALID,86.8078,VALID,0,VALID,18.4341,VALID,330,VALID,0,
2009-10-09, 03:40:05,VALID,916.521,VALID,0,VALID,87.0061,VALID,0,VALID,18.4731,VALID,330,VALID,0,
2009-10-09, 03:41:05,VALID,916.524,VALID,0,VALID,86.9451,VALID,0,VALID,18.5316,VALID,330,VALID,0,
2009-10-09, 03:42:05,VALID,916.508,VALID,0,VALID,86.724,VALID,0,VALID,18.5705,VALID,330,VALID,0,
2009-10-09, 03:43:05,VALID,916.499,VALID,0,VALID,86.541,VALID,0,VALID,18.59,VALID,330,VALID,0,
2009-10-09, 03:44:05,VALID,916.469,VALID,0,VALID,86.1446,VALID,0,VALID,18.629,VALID,330,VALID,0.0226563,
2009-10-09, 03:45:05,VALID,916.471,VALID,0,VALID,85.954,VALID,0,VALID,18.7265,VALID,330,VALID,0,
2009-10-09, 03:46:05,VALID,916.479,VALID,0,VALID,85.6872,VALID,0,VALID,18.7655,VALID,330,VALID,0.130469,
2009-10-09, 03:47:05,VALID,916.466,VALID,0,VALID,85.6872,VALID,0,VALID,18.785,VALID,330,VALID,0.359375,